Weather History for Jackson, MS

Change the Weather History Date:

Thursday, April 25, 2013

  Actual Average Record
Temperature  
Mean Temperature 59 °F 66 °F  
Max Temperature 72 °F 78 °F 90 °F (1925)
Min Temperature 46 °F 55 °F 31 °F (1910)
Degree Days  
Heating Degree Days 6 2  
Month to date heating degree days 112 100  
Since 1 July heating degree days 2255 2370  
Cooling Degree Days 0 3  
Month to date cooling degree days 71 60  
Year to date cooling degree days 88 97  
Growing Degree Days 9 (Base 50)    
Moisture  
Dew Point 41 °F    
Average Humidity 55    
Maximum Humidity 82    
Minimum Humidity 28    
Precipitation  
Precipitation 0.00 in 0.15 in 3.48 in (1929)
Month to date precipitation 4.31 4.27  
Year to date precipitation 27.34 19.04  
Sea Level Pressure  
Sea Level Pressure 30.30 in    
Wind  
Wind Speed 8 mph (NE)    
Max Wind Speed 17 mph    
Max Gust Speed 23 mph    
Visibility 10 miles    
Events      
T = Trace of Precipitation, MM = Missing Value Source: NWS Daily Summary

Daily Weather History Graph

Daily Weather History Graph

Search for Another Location

Airport:

Trip Planner

Search our weather history database for the weather conditions in past years. The results will help you decide how hot, cold, wet, or windy it might be!

Date:

Astronomy

Apr. 25, 2013 Rise Set
Actual Time 6:19 AM CDT 7:37 PM CDT
Civil Twilight 5:53 AM CDT 8:03 PM CDT
Nautical Twilight 5:23 AM CDT 8:33 PM CDT
Astronomical Twilight 4:51 AM CDT 9:05 PM CDT
Moon 7:48 PM CDT (4/25) 6:02 AM CDT (4/25)
Length of Visible Light 14h 09m
Length of Day
13h 17m
Full, 100% of the Moon is Illuminated
Apr 25
Full
Apr 25
Full
May 2
Last Quarter
May 9
New
May 17
First Quarter

Hourly Weather History & Observations

Time (CDT) Temp. Windchill Dew Point Humidity Pressure Visibility Wind Dir Wind Speed Gust Speed Precip Events Conditions
12:54 AM 51.1 °F - 44.1 °F 77% 30.27 in 10.0 mi North 6.9 mph - N/A   Overcast
1:54 AM 51.1 °F - 44.1 °F 77% 30.26 in 10.0 mi North 9.2 mph - N/A   Overcast
2:46 AM 51.8 °F - 42.8 °F 71% 30.25 in 10.0 mi NNE 12.7 mph - N/A   Overcast
2:54 AM 50.0 °F - 42.1 °F 74% 30.25 in 10.0 mi NNE 9.2 mph - N/A   Overcast
3:54 AM 48.0 °F - 41.0 °F 77% 30.27 in 10.0 mi NNE 9.2 mph - N/A   Clear
4:54 AM 46.9 °F - 41.0 °F 80% 30.29 in 10.0 mi NNE 6.9 mph - N/A   Scattered Clouds
5:54 AM 46.0 °F 42.5 °F 41.0 °F 83% 30.30 in 10.0 mi NNE 6.9 mph - N/A   Partly Cloudy
6:54 AM 46.9 °F - 41.0 °F 80% 30.31 in 10.0 mi NNE 11.5 mph - N/A   Partly Cloudy
7:54 AM 48.0 °F - 41.0 °F 77% 30.34 in 10.0 mi NE 10.4 mph - N/A   Partly Cloudy
8:54 AM 50.0 °F - 39.9 °F 68% 30.36 in 10.0 mi NNE 9.2 mph - N/A   Clear
9:54 AM 55.0 °F - 39.0 °F 55% 30.37 in 10.0 mi ENE 10.4 mph 17.3 mph N/A   Clear
10:54 AM 57.9 °F - 39.9 °F 51% 30.37 in 10.0 mi ENE 8.1 mph - N/A   Clear
11:54 AM 61.0 °F - 41.0 °F 48% 30.36 in 10.0 mi North 9.2 mph - N/A   Clear
12:54 PM 64.0 °F - 41.0 °F 43% 30.32 in 10.0 mi North 9.2 mph - N/A   Clear
1:54 PM 66.9 °F - 41.0 °F 39% 30.32 in 10.0 mi North 6.9 mph - N/A   Clear
2:54 PM 69.1 °F - 39.9 °F 35% 30.31 in 10.0 mi North 8.1 mph - N/A   Clear
3:54 PM 71.1 °F - 39.0 °F 31% 30.29 in 10.0 mi North 3.5 mph - N/A   Clear
4:54 PM 70.0 °F - 36.0 °F 29% 30.28 in 10.0 mi ENE 4.6 mph - N/A   Clear
5:54 PM 70.0 °F - 37.9 °F 31% 30.28 in 10.0 mi NE 6.9 mph - N/A   Clear
6:54 PM 68.0 °F - 39.9 °F 36% 30.27 in 10.0 mi East 4.6 mph - N/A   Clear
7:54 PM 57.0 °F - 48.0 °F 72% 30.28 in 10.0 mi ENE 4.6 mph - N/A   Clear
8:54 PM 55.9 °F - 45.0 °F 67% 30.30 in 10.0 mi ENE 4.6 mph - N/A   Clear
9:54 PM 55.9 °F - 43.0 °F 62% 30.31 in 10.0 mi East 6.9 mph - N/A   Clear
10:54 PM 54.0 °F - 43.0 °F 66% 30.31 in 10.0 mi ENE 5.8 mph - N/A   Clear
11:54 PM 55.0 °F - 41.0 °F 59% 30.30 in 10.0 mi East 8.1 mph - N/A   Clear